Terminal Aerodrome Forecast
Issued by NWS Anchorage, AK

Home | Current Version | Previous Version | Text Only | Print | Product List | Glossary On
Versions: 1 2 3 4 5 6 7 8 9 10 11 12 13 14 15 16
000
FTAK31 PANC 310544
TAFANC
TAF
PANC 310544Z 3106/0112 35006KT P6SM SKC
     FM311800 03009KT P6SM SCT070 BKN120
     FM010600 36010KT P6SM SCT060 BKN100 WS020/10035KT=

USA.gov is the U.S. government's official web portal to all federal, state and local government web resources and services.